Weather in Fedulov

Russia / Rostov Oblast     47°15′35″N   40°27′47″E
temp.,
°C
wind,
m/s
gust,
m/s
humid.,
%
clouds,
%
prec.,
mm/h
press.,
hPa
HPBL,
m
7 july, thu
thu700:00+20e410390 0.0 1014162
03:00+18e35410 0.0 101472
06:00+20e37390 0.0 1015165
09:00+28ese56250 0.0 10141216
12:00+32ese67180 0.0 10132368
15:00+34ese66160 0.0 10112733
18:00+33ese66160 0.0 10112987
21:00+25ese34290 0.0 101239
8 july, fri
fri800:00+21e33370 0.0 101323
03:00+19e33460 0.0 101332
06:00+21e35460 0.0 1013137
09:00+28e68290 0.0 10131231
12:00+33e78200 0.0 10122792
15:00+35ese66120 0.0 10103265
18:00+34se5616100 0.0 10093378
21:00+26e2328100 0.0 101022
9 july, sat
sat900:00+24ene463398 0.0 100974
03:00+22e3639100 0.0 1009114
06:00+22ese4104213 0.0 1010268
09:00+30se682669 0.0 10101213
12:00+32ese5821100 0.0 10092160
15:00+34se671789 0.0 10083349
18:00+32ese982296 0.0 10072446
21:00+25e6123690 0.1 1007354
10 july, sun
sun1000:00+22ne4105113 0.2 1006183
03:00+20ene485371 0.3 1006129
06:00+21e495225 0.1 1006245
09:00+30ese6830100 0.2 10051145
12:00+35se8919100 0.0 10032599
15:00+37sse7820100 0.0 10013980
18:00+34sw6525100 0.0 10011468
21:00+23nnw1367100 0.3 100381
11 july, mon
mon1100:00+21wnw227995 2.1 100431
03:00+19ssw35875 2.1 100678
06:00+20s22868 1.1 100774
09:00+26ssw335689 1.7 1007831
12:00+32ssw453499 0.0 10062703
15:00+31ssw463151 0.2 10061862
18:00+27w6850100 0.0 1008393
21:00+23wsw48640 0.2 1011237